Tracking 31027 objects as of 19-Jul-2025
HD Live streaming from Space Station
objects crossing your sky now

STARLINK-3535

Track STARLINK-3535 now!
10-day predictions
STARLINK-3535 is classified as:


NORAD ID: 51722
Int'l Code: 2022-016J
Perigee: 546.1 km
Apogee: 547.7 km
Inclination: 53.2 °
Period: 95.4 minutes
Semi major axis: 6917 km
RCS: Unknown
Launch date: February 21, 2022
Source: United States (US)
Launch site: AIR FORCE EASTERN TEST RANGE (AFETR)
Your satellite tracking list
IRIDIUM 135
Track 1 satellite(s)




NASA's NSSDC Master Catalog

Two Line Element Set (TLE):
1 51722U 22016J   25199.55511378 -.00000195  00000-0  58443-5 0  9994
2 51722  53.2184 300.1917 0001167  82.4819 277.6305 15.08837285188071
Source of the keplerian elements: AFSPC